Вернуться в каталог

COSMOS 970 DEB

АктивенLEO
NORAD 10574·DEBRIS·🇷🇺 Russia

Запущен Dec 21, 1977 с Baikonur Cosmodrome

Loading…

Ближайшие Пролёты (ближайшие 24 часа)

TLE

СвежийSource: Space-Track

Эпоха: Sep 14, 2026, 11:42 UTC

1 10574U 77121R   26257.48780803  .00000151  00000-0  29132-3 0  9992
2 10574  65.5458  73.1171 0114803 144.5058 246.6059 13.60856812412982

Отслеживайте COSMOS 970 DEB в реальном времени с AllMySat

Download on the App Store